JES3790 SABE-SGAS

Flight info

Callsign JES3790
Flight time 1h 35m
Altitude 37000
Route LANDA4B LANDA DCT GUA DCT DALAB UZ103 REPAM UP526 SAMGU SAMGU
Aircraft A320/M-SDE3FGHIRWY/LB1

Departure

Time 2026-04-26 16:58
Airport Aeroparque Jorge Newbery (SABE)

Arrival

Time 2026-04-26 18:34
Airport Silvio Pettirossi International Airport (SGAS)
Time Latitude Longitude Altitude Speed Heading
2026-04-26 16:17 -34.55682 -58.41490 23 ft 0 kts 12°
2026-04-26 16:24 -34.55683 -58.41490 23 ft 0 kts 12°
2026-04-26 16:39 -34.55684 -58.41490 23 ft 0 kts 12°
2026-04-26 16:46 -34.55685 -58.41491 23 ft 2 kts 12°
2026-04-26 16:47 -34.55707 -58.41501 25 ft 4 kts 52°
2026-04-26 16:47 -34.55712 -58.41525 23 ft 4 kts 116°
2026-04-26 16:47 -34.55708 -58.41535 27 ft 0 kts 119°
2026-04-26 16:48 -34.55707 -58.41536 27 ft 0 kts 119°
2026-04-26 16:49 -34.55710 -58.41529 26 ft 4 kts 119°
2026-04-26 16:49 -34.55739 -58.41469 23 ft 10 kts 119°
2026-04-26 16:50 -34.55769 -58.41405 23 ft 7 kts 120°
2026-04-26 16:50 -34.55796 -58.41352 25 ft 8 kts 123°
2026-04-26 16:50 -34.55832 -58.41288 23 ft 10 kts 130°
2026-04-26 16:50 -34.55885 -58.41294 23 ft 6 kts 213°
2026-04-26 16:51 -34.55926 -58.41293 23 ft 7 kts 137°
2026-04-26 16:51 -34.55958 -58.41236 24 ft 9 kts 125°
2026-04-26 16:51 -34.56000 -58.41169 25 ft 11 kts 127°
2026-04-26 16:51 -34.56049 -58.41092 23 ft 12 kts 127°
2026-04-26 16:52 -34.56103 -58.41006 24 ft 13 kts 127°
2026-04-26 16:52 -34.56122 -58.40975 23 ft 13 kts 126°
2026-04-26 16:52 -34.56170 -58.40862 23 ft 8 kts 99°
2026-04-26 16:52 -34.56189 -58.40789 24 ft 10 kts 124°
2026-04-26 16:53 -34.56231 -58.40714 23 ft 12 kts 124°
2026-04-26 16:53 -34.56280 -58.40626 23 ft 13 kts 124°
2026-04-26 16:53 -34.56345 -58.40536 25 ft 15 kts 135°
2026-04-26 16:53 -34.56412 -58.40462 23 ft 8 kts 139°
2026-04-26 16:54 -34.56421 -58.40453 23 ft 0 kts 139°
2026-04-26 16:56 -34.56435 -58.40438 24 ft 7 kts 139°
2026-04-26 16:56 -34.56500 -58.40376 23 ft 13 kts 166°
2026-04-26 16:57 -34.56552 -58.40441 23 ft 12 kts 284°
2026-04-26 16:57 -34.56526 -58.40492 23 ft 0 kts 303°
2026-04-26 16:57 -34.56430 -58.40664 22 ft 60 kts 304°
2026-04-26 16:58 -34.56077 -58.41296 25 ft 118 kts 303°
2026-04-26 16:58 -34.55735 -58.41911 28 ft 147 kts 303°
2026-04-26 16:58 -34.54270 -58.44390 1349 ft 157 kts 303°
2026-04-26 16:59 -34.53416 -58.45339 1630 ft 181 kts 317°
2026-04-26 16:59 -34.50603 -58.46293 2173 ft 249 kts 357°
2026-04-26 17:00 -34.47168 -58.44473 3586 ft 284 kts 27°
2026-04-26 17:00 -34.43750 -58.41896 5288 ft 293 kts 26°
2026-04-26 17:00 -34.42004 -58.40593 6156 ft 297 kts 26°
2026-04-26 17:01 -34.40232 -58.39271 7001 ft 301 kts 24°
2026-04-26 17:01 -34.38385 -58.38118 7758 ft 295 kts
2026-04-26 17:01 -34.36423 -58.37783 8564 ft 278 kts 345°
2026-04-26 17:01 -34.34604 -58.38239 9440 ft 258 kts 325°
2026-04-26 17:02 -34.33092 -58.39275 10202 ft 250 kts 314°
2026-04-26 17:02 -34.31607 -58.40535 10421 ft 272 kts 314°
2026-04-26 17:02 -34.30007 -58.41894 10790 ft 287 kts 315°
2026-04-26 17:02 -34.28350 -58.43279 11426 ft 292 kts 315°
2026-04-26 17:03 -34.26667 -58.44669 12097 ft 295 kts 315°
2026-04-26 17:03 -34.24965 -58.46066 12801 ft 297 kts 315°
2026-04-26 17:03 -34.23248 -58.47476 13511 ft 300 kts 315°
2026-04-26 17:03 -34.21514 -58.48901 14114 ft 304 kts 314°
2026-04-26 17:04 -34.19759 -58.50348 14682 ft 307 kts 314°
2026-04-26 17:04 -34.17997 -58.51803 15287 ft 309 kts 313°
2026-04-26 17:04 -34.16214 -58.53278 15906 ft 311 kts 313°
2026-04-26 17:04 -34.14426 -58.54757 16510 ft 313 kts 313°
2026-04-26 17:05 -34.12443 -58.56012 17109 ft 334 kts 326°
2026-04-26 17:05 -34.10085 -58.56625 17691 ft 363 kts 341°
2026-04-26 17:05 -34.07528 -58.56761 18126 ft 371 kts 343°
2026-04-26 17:05 -34.04927 -58.56881 18574 ft 376 kts 343°
2026-04-26 17:06 -34.02297 -58.56997 19078 ft 379 kts 343°
2026-04-26 17:06 -33.99651 -58.57115 19590 ft 382 kts 343°
2026-04-26 17:06 -33.96986 -58.57239 20106 ft 385 kts 343°
2026-04-26 17:06 -33.94305 -58.57367 20600 ft 387 kts 343°
2026-04-26 17:07 -33.91603 -58.57497 21084 ft 390 kts 343°
2026-04-26 17:07 -33.88885 -58.57631 21558 ft 392 kts 343°
2026-04-26 17:07 -33.86147 -58.57761 21978 ft 395 kts 343°
2026-04-26 17:07 -33.83389 -58.57885 22444 ft 398 kts 343°
2026-04-26 17:08 -33.80613 -58.58004 22916 ft 401 kts 343°
2026-04-26 17:08 -33.77817 -58.58121 23366 ft 404 kts 343°
2026-04-26 17:08 -33.75003 -58.58237 23760 ft 406 kts 344°
2026-04-26 17:08 -33.72171 -58.58355 24153 ft 408 kts 344°
2026-04-26 17:09 -33.69327 -58.58473 24549 ft 410 kts 344°
2026-04-26 17:09 -33.67437 -58.58552 24806 ft 411 kts 344°
2026-04-26 17:09 -33.63600 -58.58714 25257 ft 414 kts 345°
2026-04-26 17:09 -33.60717 -58.58840 25636 ft 415 kts 345°
2026-04-26 17:10 -33.57823 -58.58967 26026 ft 417 kts 345°
2026-04-26 17:10 -33.54922 -58.59097 26400 ft 419 kts 345°
2026-04-26 17:10 -33.52002 -58.59228 26771 ft 420 kts 345°
2026-04-26 17:10 -33.49071 -58.59359 27142 ft 422 kts 345°
2026-04-26 17:11 -33.46129 -58.59486 27520 ft 424 kts 345°
2026-04-26 17:11 -33.43174 -58.59610 27879 ft 426 kts 345°
2026-04-26 17:11 -33.40204 -58.59734 28222 ft 428 kts 346°
2026-04-26 17:11 -33.37228 -58.59857 28603 ft 429 kts 346°
2026-04-26 17:12 -33.31270 -58.60113 29344 ft 433 kts 346°
2026-04-26 17:12 -33.28259 -58.60248 29707 ft 434 kts 346°
2026-04-26 17:13 -33.22214 -58.60508 30516 ft 433 kts 345°
2026-04-26 17:13 -33.19209 -58.60631 30877 ft 432 kts 346°
2026-04-26 17:13 -33.13230 -58.60882 31742 ft 428 kts 345°
2026-04-26 17:14 -33.10255 -58.61010 32161 ft 427 kts 345°
2026-04-26 17:14 -33.04321 -58.61268 33058 ft 425 kts 345°
2026-04-26 17:14 -33.01368 -58.61395 33481 ft 425 kts 344°
2026-04-26 17:15 -32.95508 -58.61778 34211 ft 419 kts 342°
2026-04-26 17:15 -32.92607 -58.62042 34537 ft 418 kts 341°
2026-04-26 17:15 -32.89717 -58.62318 34858 ft 417 kts 341°
2026-04-26 17:16 -32.86826 -58.62591 35178 ft 416 kts 341°
2026-04-26 17:16 -32.83940 -58.62851 35488 ft 416 kts 341°
2026-04-26 17:16 -32.81058 -58.63101 35778 ft 415 kts 341°
2026-04-26 17:16 -32.78177 -58.63343 36072 ft 415 kts 341°
2026-04-26 17:17 -32.75302 -58.63582 36352 ft 414 kts 341°
2026-04-26 17:17 -32.72429 -58.63821 36575 ft 413 kts 342°
2026-04-26 17:17 -32.69564 -58.64055 36837 ft 413 kts 341°
2026-04-26 17:18 -32.63800 -58.64543 36913 ft 419 kts 341°
2026-04-26 17:18 -32.57969 -58.65044 36913 ft 421 kts 342°
2026-04-26 17:19 -32.49202 -58.65769 36923 ft 420 kts 342°
2026-04-26 17:19 -32.43378 -58.66241 36927 ft 419 kts 342°
2026-04-26 17:20 -32.38539 -58.66640 36928 ft 419 kts 342°
2026-04-26 17:20 -32.31640 -58.66753 36931 ft 443 kts 355°
2026-04-26 17:21 -32.25523 -58.65478 36933 ft 447 kts 356°
2026-04-26 17:21 -32.19403 -58.64188 36938 ft 447 kts 355°
2026-04-26 17:22 -32.13274 -58.62909 36940 ft 447 kts 355°
2026-04-26 17:22 -32.07146 -58.61642 36941 ft 447 kts 355°
2026-04-26 17:23 -32.01027 -58.60371 36905 ft 446 kts 355°
2026-04-26 17:23 -31.94920 -58.59108 36937 ft 446 kts 355°
2026-04-26 17:24 -31.88812 -58.57850 36948 ft 445 kts 355°
2026-04-26 17:24 -31.82709 -58.56600 36949 ft 445 kts 355°
2026-04-26 17:25 -31.76608 -58.55340 36914 ft 445 kts 355°
2026-04-26 17:25 -31.70555 -58.54095 36935 ft 445 kts 355°
2026-04-26 17:26 -31.64419 -58.52837 36946 ft 444 kts 355°
2026-04-26 17:26 -31.58369 -58.51600 36950 ft 444 kts 355°
2026-04-26 17:27 -31.52246 -58.50350 36909 ft 443 kts 355°
2026-04-26 17:27 -31.46178 -58.49102 36931 ft 443 kts 355°
2026-04-26 17:28 -31.40151 -58.47872 36945 ft 442 kts 355°
2026-04-26 17:28 -31.34049 -58.46633 36942 ft 442 kts 354°
2026-04-26 17:29 -31.29018 -58.45609 36888 ft 441 kts 354°
2026-04-26 17:29 -31.21995 -58.44182 36935 ft 440 kts 354°
2026-04-26 17:30 -31.15962 -58.42945 36945 ft 440 kts 354°
2026-04-26 17:30 -31.09939 -58.41719 36948 ft 439 kts 354°
2026-04-26 17:31 -31.03916 -58.40510 36891 ft 439 kts 354°
2026-04-26 17:31 -30.97900 -58.39297 36925 ft 439 kts 354°
2026-04-26 17:32 -30.91889 -58.38075 36936 ft 439 kts 354°
2026-04-26 17:32 -30.85878 -58.36834 36951 ft 439 kts 354°
2026-04-26 17:33 -30.79861 -58.35510 36944 ft 440 kts 355°
2026-04-26 17:34 -30.70840 -58.33490 36930 ft 440 kts 354°
2026-04-26 17:34 -30.64829 -58.32162 36944 ft 439 kts 354°
2026-04-26 17:35 -30.58821 -58.30853 36955 ft 439 kts 354°
2026-04-26 17:35 -30.52828 -58.29663 36887 ft 436 kts 353°
2026-04-26 17:36 -30.46858 -58.28551 36921 ft 434 kts 352°
2026-04-26 17:36 -30.40888 -58.27424 36937 ft 435 kts 353°
2026-04-26 17:37 -30.34950 -58.26280 36947 ft 436 kts 353°
2026-04-26 17:37 -30.28929 -58.25116 36953 ft 436 kts 353°
2026-04-26 17:38 -30.20002 -58.23402 36944 ft 435 kts 353°
2026-04-26 17:38 -30.14027 -58.22253 36967 ft 435 kts 353°
2026-04-26 17:39 -30.08051 -58.21117 36963 ft 435 kts 353°
2026-04-26 17:39 -30.02073 -58.19969 36871 ft 435 kts 353°
2026-04-26 17:40 -29.98085 -58.19202 36939 ft 435 kts 353°
2026-04-26 17:40 -29.90135 -58.17684 36962 ft 435 kts 353°
2026-04-26 17:41 -29.84166 -58.16549 36972 ft 435 kts 353°
2026-04-26 17:41 -29.79209 -58.15585 36977 ft 436 kts 353°
2026-04-26 17:42 -29.73237 -58.14338 36965 ft 437 kts 354°
2026-04-26 17:42 -29.67265 -58.13067 36973 ft 436 kts 354°
2026-04-26 17:43 -29.61296 -58.11805 36972 ft 436 kts 354°
2026-04-26 17:43 -29.55327 -58.10561 36966 ft 436 kts 353°
2026-04-26 17:44 -29.49360 -58.09326 36917 ft 436 kts 353°
2026-04-26 17:44 -29.43390 -58.08101 36933 ft 436 kts 354°
2026-04-26 17:45 -29.37404 -58.06738 36945 ft 442 kts 356°
2026-04-26 17:45 -29.31394 -58.05107 36955 ft 445 kts 357°
2026-04-26 17:46 -29.25379 -58.03429 36960 ft 444 kts 357°
2026-04-26 17:46 -29.19369 -58.01826 36937 ft 443 kts 357°
2026-04-26 17:47 -29.14366 -58.00523 36954 ft 444 kts 356°
2026-04-26 17:47 -29.07330 -57.98692 36962 ft 444 kts 357°
2026-04-26 17:48 -29.01311 -57.97112 36964 ft 444 kts 357°
2026-04-26 17:48 -28.95292 -57.95533 36923 ft 444 kts 357°
2026-04-26 17:49 -28.89274 -57.93972 36945 ft 443 kts 357°
2026-04-26 17:49 -28.83254 -57.92400 36931 ft 444 kts 357°
2026-04-26 17:50 -28.77233 -57.90821 36954 ft 444 kts 357°
2026-04-26 17:50 -28.71215 -57.89254 36923 ft 444 kts 357°
2026-04-26 17:51 -28.65199 -57.87688 36920 ft 444 kts 358°
2026-04-26 17:51 -28.59180 -57.86127 36941 ft 444 kts 358°
2026-04-26 17:52 -28.53162 -57.84568 36952 ft 444 kts 358°
2026-04-26 17:52 -28.47143 -57.83009 36957 ft 444 kts 358°
2026-04-26 17:53 -28.41161 -57.81460 36918 ft 444 kts 358°
2026-04-26 17:54 -28.32135 -57.79112 36956 ft 444 kts 358°
2026-04-26 17:54 -28.26113 -57.77554 36960 ft 444 kts 358°
2026-04-26 17:55 -28.20091 -57.75980 36951 ft 444 kts 358°
2026-04-26 17:55 -28.14072 -57.74388 36921 ft 445 kts 359°
2026-04-26 17:56 -28.08037 -57.72797 36944 ft 445 kts 359°
2026-04-26 17:57 -27.95968 -57.69642 36952 ft 445 kts 359°
2026-04-26 17:57 -27.89935 -57.68068 36909 ft 445 kts 359°
2026-04-26 17:58 -27.77859 -57.64918 36915 ft 445 kts 359°
2026-04-26 17:59 -27.68796 -57.62560 36939 ft 446 kts 359°
2026-04-26 17:59 -27.62750 -57.60983 36890 ft 446 kts 360°
2026-04-26 18:00 -27.56709 -57.59411 36906 ft 446 kts
2026-04-26 18:00 -27.53687 -57.58625 36664 ft 445 kts
2026-04-26 18:00 -27.50669 -57.57843 36411 ft 445 kts 360°
2026-04-26 18:01 -27.47648 -57.57062 36162 ft 445 kts
2026-04-26 18:01 -27.44625 -57.56284 35907 ft 445 kts 359°
2026-04-26 18:01 -27.41610 -57.55802 35671 ft 430 kts 350°
2026-04-26 18:01 -27.38627 -57.55687 34991 ft 431 kts 349°
2026-04-26 18:02 -27.35622 -57.55601 34343 ft 432 kts 349°
2026-04-26 18:02 -27.33641 -57.55545 34069 ft 429 kts 349°
2026-04-26 18:02 -27.29661 -57.55433 33367 ft 425 kts 349°
2026-04-26 18:02 -27.26717 -57.55352 32885 ft 422 kts 349°
2026-04-26 18:03 -27.23794 -57.55267 32400 ft 419 kts 349°
2026-04-26 18:03 -27.20894 -57.55181 31925 ft 415 kts 349°
2026-04-26 18:03 -27.18014 -57.55099 31443 ft 412 kts 349°
2026-04-26 18:03 -27.15160 -57.55017 30983 ft 409 kts 349°
2026-04-26 18:04 -27.12330 -57.54934 30519 ft 405 kts 349°
2026-04-26 18:04 -27.09559 -57.54854 30066 ft 402 kts 349°
2026-04-26 18:04 -27.06736 -57.54772 29570 ft 399 kts 349°
2026-04-26 18:05 -27.01293 -57.54599 28708 ft 389 kts 349°
2026-04-26 18:05 -26.98604 -57.54519 28300 ft 384 kts 349°
2026-04-26 18:05 -26.95943 -57.54446 27889 ft 381 kts 349°
2026-04-26 18:05 -26.93310 -57.54374 27507 ft 377 kts 349°
2026-04-26 18:06 -26.90702 -57.54300 27122 ft 374 kts 349°
2026-04-26 18:06 -26.88112 -57.54226 26743 ft 371 kts 349°
2026-04-26 18:06 -26.85544 -57.54151 26350 ft 367 kts 349°
2026-04-26 18:06 -26.83006 -57.54092 25996 ft 362 kts 349°
2026-04-26 18:07 -26.80498 -57.54057 25634 ft 359 kts 348°
2026-04-26 18:07 -26.78012 -57.54035 25275 ft 355 kts 348°
2026-04-26 18:07 -26.75551 -57.54019 24917 ft 352 kts 348°
2026-04-26 18:07 -26.73932 -57.54007 24678 ft 351 kts 348°
2026-04-26 18:08 -26.70684 -57.53979 24198 ft 348 kts 348°
2026-04-26 18:08 -26.68272 -57.53958 23845 ft 345 kts 348°
2026-04-26 18:08 -26.65874 -57.53934 23475 ft 344 kts 348°
2026-04-26 18:08 -26.63489 -57.53909 23068 ft 342 kts 348°
2026-04-26 18:09 -26.61125 -57.53885 22705 ft 338 kts 349°
2026-04-26 18:09 -26.58780 -57.53860 22316 ft 336 kts 349°
2026-04-26 18:09 -26.56454 -57.53835 21982 ft 334 kts 350°
2026-04-26 18:09 -26.54139 -57.53808 21608 ft 332 kts 350°
2026-04-26 18:10 -26.51836 -57.53781 21242 ft 330 kts 351°
2026-04-26 18:10 -26.49546 -57.53754 20880 ft 328 kts 351°
2026-04-26 18:10 -26.47243 -57.53733 20631 ft 339 kts 351°
2026-04-26 18:10 -26.44842 -57.53725 20352 ft 348 kts 352°
2026-04-26 18:11 -26.42411 -57.53708 20069 ft 350 kts 352°
2026-04-26 18:11 -26.39978 -57.53681 19786 ft 349 kts 352°
2026-04-26 18:11 -26.37557 -57.53648 19506 ft 348 kts 353°
2026-04-26 18:11 -26.35143 -57.53614 19230 ft 346 kts 353°
2026-04-26 18:12 -26.32740 -57.53581 18943 ft 344 kts 353°
2026-04-26 18:12 -26.30363 -57.53550 18679 ft 340 kts 353°
2026-04-26 18:12 -26.28008 -57.53524 18409 ft 337 kts 353°
2026-04-26 18:12 -26.25672 -57.53500 18129 ft 335 kts 354°
2026-04-26 18:13 -26.23345 -57.53479 17838 ft 334 kts 354°
2026-04-26 18:13 -26.21025 -57.53458 17571 ft 333 kts 354°
2026-04-26 18:13 -26.18707 -57.53435 17304 ft 333 kts 354°
2026-04-26 18:13 -26.17175 -57.53420 17120 ft 333 kts 354°
2026-04-26 18:14 -26.14081 -57.53392 16764 ft 332 kts 354°
2026-04-26 18:14 -26.11771 -57.53368 16505 ft 331 kts 354°
2026-04-26 18:14 -26.09469 -57.53342 16241 ft 331 kts 354°
2026-04-26 18:14 -26.07161 -57.53172 15958 ft 335 kts
2026-04-26 18:15 -26.04858 -57.52791 15698 ft 334 kts
2026-04-26 18:15 -26.02565 -57.52415 15421 ft 333 kts
2026-04-26 18:15 -26.00277 -57.52043 15167 ft 332 kts
2026-04-26 18:15 -25.97996 -57.51670 14900 ft 331 kts
2026-04-26 18:16 -25.95749 -57.51304 14641 ft 330 kts
2026-04-26 18:16 -25.91179 -57.50559 14098 ft 329 kts
2026-04-26 18:16 -25.88947 -57.50200 13848 ft 328 kts
2026-04-26 18:17 -25.86688 -57.49838 13569 ft 328 kts
2026-04-26 18:17 -25.84434 -57.49475 13302 ft 327 kts
2026-04-26 18:17 -25.82184 -57.49110 13036 ft 326 kts
2026-04-26 18:17 -25.79910 -57.48740 12761 ft 326 kts
2026-04-26 18:18 -25.77676 -57.48377 12509 ft 324 kts
2026-04-26 18:18 -25.75451 -57.48015 12252 ft 322 kts
2026-04-26 18:18 -25.73238 -57.47655 11991 ft 321 kts
2026-04-26 18:18 -25.71062 -57.47301 11740 ft 320 kts
2026-04-26 18:19 -25.68859 -57.46943 11481 ft 319 kts
2026-04-26 18:19 -25.66662 -57.46588 11226 ft 319 kts
2026-04-26 18:19 -25.64469 -57.46234 10968 ft 318 kts
2026-04-26 18:19 -25.62280 -57.45882 10712 ft 317 kts
2026-04-26 18:20 -25.60100 -57.45531 10461 ft 317 kts
2026-04-26 18:20 -25.57920 -57.45180 10206 ft 316 kts
2026-04-26 18:20 -25.55754 -57.44829 10003 ft 311 kts
2026-04-26 18:20 -25.55035 -57.44711 9960 ft 308 kts
2026-04-26 18:21 -25.51572 -57.44144 9634 ft 298 kts
2026-04-26 18:21 -25.49532 -57.43814 9414 ft 295 kts
2026-04-26 18:21 -25.47507 -57.43490 9183 ft 293 kts
2026-04-26 18:21 -25.45488 -57.43169 8953 ft 293 kts
2026-04-26 18:22 -25.43477 -57.42848 8721 ft 291 kts
2026-04-26 18:22 -25.41471 -57.42526 8491 ft 291 kts
2026-04-26 18:22 -25.39467 -57.42205 8259 ft 291 kts
2026-04-26 18:22 -25.37466 -57.41883 8034 ft 290 kts
2026-04-26 18:23 -25.35470 -57.41548 7805 ft 290 kts
2026-04-26 18:23 -25.33490 -57.41122 7576 ft 290 kts
2026-04-26 18:23 -25.31524 -57.40639 7349 ft 289 kts
2026-04-26 18:23 -25.29567 -57.40139 7101 ft 288 kts 10°
2026-04-26 18:24 -25.27612 -57.39641 6873 ft 288 kts 10°
2026-04-26 18:24 -25.25651 -57.39150 6529 ft 290 kts 10°
2026-04-26 18:24 -25.23673 -57.38661 6208 ft 291 kts 11°
2026-04-26 18:24 -25.21704 -57.38179 5868 ft 290 kts 11°
2026-04-26 18:25 -25.19745 -57.37704 5606 ft 286 kts 10°
2026-04-26 18:25 -25.17797 -57.37232 5252 ft 285 kts 10°
2026-04-26 18:25 -25.15862 -57.36766 4895 ft 286 kts 10°
2026-04-26 18:25 -25.13935 -57.36301 4647 ft 282 kts 10°
2026-04-26 18:26 -25.12028 -57.35841 4319 ft 281 kts 11°
2026-04-26 18:26 -25.10115 -57.35378 3959 ft 281 kts 10°
2026-04-26 18:26 -25.08225 -57.34946 3747 ft 273 kts
2026-04-26 18:26 -25.06963 -57.34931 3677 ft 264 kts 350°
2026-04-26 18:27 -25.05264 -57.35521 3542 ft 251 kts 328°
2026-04-26 18:27 -25.03965 -57.36704 3429 ft 237 kts 307°
2026-04-26 18:27 -25.03176 -57.38225 3306 ft 224 kts 287°
2026-04-26 18:27 -25.02901 -57.39854 3180 ft 211 kts 269°
2026-04-26 18:28 -25.03090 -57.41384 3077 ft 199 kts 251°
2026-04-26 18:28 -25.03664 -57.42772 2988 ft 195 kts 239°
2026-04-26 18:28 -25.04334 -57.44043 2962 ft 194 kts 239°
2026-04-26 18:28 -25.05010 -57.45333 2962 ft 194 kts 239°
2026-04-26 18:29 -25.05712 -57.46602 2960 ft 194 kts 231°
2026-04-26 18:29 -25.06710 -57.47554 2973 ft 184 kts 209°
2026-04-26 18:29 -25.07848 -57.47996 2949 ft 164 kts 193°
2026-04-26 18:29 -25.08927 -57.48255 2830 ft 155 kts 194°
2026-04-26 18:30 -25.09961 -57.48507 2669 ft 150 kts 194°
2026-04-26 18:30 -25.10974 -57.48753 2491 ft 148 kts 194°
2026-04-26 18:30 -25.11978 -57.48997 2303 ft 147 kts 193°
2026-04-26 18:30 -25.12973 -57.49239 2105 ft 147 kts 194°
2026-04-26 18:31 -25.13968 -57.49480 1928 ft 147 kts 193°
2026-04-26 18:31 -25.14956 -57.49720 1741 ft 145 kts 194°
2026-04-26 18:31 -25.15939 -57.49958 1551 ft 145 kts 194°
2026-04-26 18:31 -25.16919 -57.50196 1357 ft 144 kts 194°
2026-04-26 18:32 -25.17885 -57.50432 1203 ft 141 kts 195°
2026-04-26 18:32 -25.18830 -57.50655 1008 ft 137 kts 191°
2026-04-26 18:32 -25.19761 -57.50881 814 ft 138 kts 195°
2026-04-26 18:32 -25.20684 -57.51115 651 ft 138 kts 188°
2026-04-26 18:33 -25.21612 -57.51342 465 ft 137 kts 189°
2026-04-26 18:33 -25.22544 -57.51567 307 ft 137 kts 188°
2026-04-26 18:33 -25.23411 -57.51776 273 ft 109 kts 192°
2026-04-26 18:33 -25.23984 -57.51914 281 ft 60 kts 192°
2026-04-26 18:34 -25.24213 -57.51966 288 ft 17 kts 184°
2026-04-26 18:34 -25.24259 -57.51923 286 ft 7 kts 114°
2026-04-26 18:34 -25.24276 -57.51853 284 ft 11 kts 102°
2026-04-26 18:34 -25.24294 -57.51763 284 ft 12 kts 103°
2026-04-26 18:35 -25.24302 -57.51681 284 ft 10 kts 71°
2026-04-26 18:35 -25.24233 -57.51647 285 ft 13 kts 12°
2026-04-26 18:35 -25.24150 -57.51621 282 ft 12 kts 34°
2026-04-26 18:35 -25.24125 -57.51553 281 ft 3 kts 122°
2026-04-26 18:36 -25.24147 -57.51536 281 ft 6 kts 149°
2026-04-26 18:36 -25.24172 -57.51523 282 ft 0 kts 153°
2026-04-26 18:43 -25.24171 -57.51523 282 ft 0 kts 153°